TimeAKDT,TemperatureF,Dew PointF,Humidity,Sea Level PressureIn,VisibilityMPH,Wind Direction,Wind SpeedMPH,Gust SpeedMPH,PrecipitationIn,Events,Conditions,WindDirDegrees,DateUTC
12:53 AM,25.0,23.0,92,30.53,9.0,WSW,17.3,-,N/A,,Clear,250,2012-10-09 08:53:00
1:53 AM,23.0,21.0,92,30.54,9.0,WSW,13.8,-,N/A,,Clear,240,2012-10-09 09:53:00
2:53 AM,23.0,21.0,92,30.55,9.0,WSW,16.1,-,N/A,,Clear,240,2012-10-09 10:53:00
3:53 AM,24.1,21.0,88,30.56,9.0,WSW,17.3,-,0.00,Snow,Light Snow,240,2012-10-09 11:53:00
4:53 AM,26.1,23.0,88,30.56,9.0,SW,18.4,-,0.00,Snow,Light Snow,230,2012-10-09 12:53:00
5:29 AM,26.6,24.8,93,30.55,9.0,SW,17.3,-,0.00,Snow,Light Snow,230,2012-10-09 13:29:00
5:53 AM,26.1,24.1,92,30.56,9.0,SW,18.4,-,0.00,Snow,Light Snow,230,2012-10-09 13:53:00
6:30 AM,26.6,24.8,93,30.56,9.0,WSW,20.7,-,0.00,Snow,Light Snow,250,2012-10-09 14:30:00
6:53 AM,27.0,24.1,89,30.57,9.0,WSW,20.7,-,0.00,Snow,Light Snow,250,2012-10-09 14:53:00
7:53 AM,27.0,24.1,89,30.58,9.0,WSW,18.4,-,0.00,Snow,Light Snow,240,2012-10-09 15:53:00
8:53 AM,27.0,25.0,92,30.58,9.0,WSW,19.6,-,0.00,Snow,Light Snow,240,2012-10-09 16:53:00
9:00 AM,26.6,24.8,93,30.58,9.0,WSW,19.6,-,0.00,Snow,Light Snow,240,2012-10-09 17:00:00
9:53 AM,27.0,25.0,92,30.58,9.0,SW,16.1,-,0.00,,Overcast,230,2012-10-09 17:53:00
10:01 AM,26.6,24.8,93,30.58,9.0,SW,18.4,-,N/A,,Mostly Cloudy,230,2012-10-09 18:01:00
10:53 AM,28.0,26.1,92,30.59,9.0,SW,19.6,-,N/A,,Mostly Cloudy,230,2012-10-09 18:53:00
11:53 AM,28.9,27.0,92,30.60,9.0,WSW,19.6,-,N/A,,Overcast,240,2012-10-09 19:53:00
12:35 PM,30.2,26.6,86,30.60,9.0,WSW,19.6,25.3,N/A,,Overcast,240,2012-10-09 20:35:00
12:45 PM,30.2,26.6,86,30.60,9.0,WSW,17.3,-,N/A,,Overcast,240,2012-10-09 20:45:00
12:53 PM,30.0,27.0,88,30.61,9.0,WSW,19.6,-,N/A,,Overcast,240,2012-10-09 20:53:00
1:53 PM,30.0,28.0,92,30.61,9.0,WSW,21.9,-,N/A,,Overcast,240,2012-10-09 21:53:00
2:53 PM,30.0,28.0,92,30.62,2.0,WSW,20.7,-,N/A,,Overcast,240,2012-10-09 22:53:00
3:50 PM,30.2,28.4,93,30.62,2.0,SW,17.3,-,N/A,,Overcast,230,2012-10-09 23:50:00
3:53 PM,30.0,28.0,92,30.62,2.0,WSW,15.0,-,N/A,,Overcast,240,2012-10-09 23:53:00
4:26 PM,30.2,28.4,93,30.61,3.0,WSW,17.3,-,N/A,,Overcast,240,2012-10-10 00:26:00
4:53 PM,30.9,28.9,92,30.62,5.0,WSW,12.7,-,N/A,,Overcast,240,2012-10-10 00:53:00
5:53 PM,30.9,28.9,92,30.62,5.0,WSW,13.8,-,N/A,,Overcast,250,2012-10-10 01:53:00
6:25 PM,30.2,28.4,93,30.61,7.0,WSW,12.7,-,N/A,,Overcast,250,2012-10-10 02:25:00
6:53 PM,30.0,28.9,96,30.62,7.0,WSW,11.5,-,N/A,,Overcast,240,2012-10-10 02:53:00
7:53 PM,30.0,28.0,92,30.62,7.0,WSW,11.5,-,N/A,,Overcast,240,2012-10-10 03:53:00
8:53 PM,27.0,26.1,96,30.62,7.0,SW,10.4,-,N/A,,Scattered Clouds,230,2012-10-10 04:53:00
9:53 PM,28.9,27.0,92,30.62,10.0,WSW,15.0,-,N/A,,Overcast,240,2012-10-10 05:53:00
10:53 PM,28.0,26.1,92,30.62,10.0,SW,11.5,-,N/A,,Mostly Cloudy,230,2012-10-10 06:53:00
11:53 PM,28.9,28.0,96,30.62,7.0,WSW,13.8,-,0.00,Snow,Light Snow,250,2012-10-10 07:53:00